DECAYED

JIELONG 3 DEB, 58506 (Decayed)

Orbit data source: Space-Track

JIELONG 3 DEB, 58506 was space debris in LEO originally from a launch on Tue, 05 Dec 2023 UTC launched from the South China Sea Launch Area (SCSLA). Debris objects in space refer to the collection of defunct objects orbiting the Earth. Examples of debris include non-operational satellites, rocket bodies, and fragments generated from explosions, collisions, or faulty payload assembly.

Not visible in the next 10 days
Identifier
58506, 2023-190B
Orbit
Decayed
Country
Flag of CNCN / PRC
Related business
Manufacturer
Changzheng H.
Mission
Decayed spacecraft
Bus & Motor
Unknown
Mass
Unknown
Launch date (UTC)
2023-12-05 (3 years ago)
Launch vehicle
Unknown
Launch site
South China Sea Launch Area (SCSLA)
Object type
Payload
Rocket body
Debris
Shape & HBR
Unknown shape, 0.5 m
Radar Cross Section
Medium (>0.1 m² and <1 m²)

Expand to show TLE details & history
Last TLE update: 11 months ago

TLE from 11 months ago
0 JIELONG 3 DEB
1 58506U 23190B   25188.06370650  .06177803 -14875-5  11426-2 0  9999
2 58506  86.5212  35.6777 0011788 354.9804   5.1379 16.32147798 87708
Epoch: 2025-07-07T01:31Z
TLE epoch observation values (Epoch: 2025-07-07T01:31:44.241Z)
Latitude
-0.00006°
Longitude
87.46494°
Altitude
182.392 km
Speed
7.801 km/s
True Right ascension
02h 22m 42s
True Declination
0° 00' 00"
Sunlit
Object was in daylight at epoch
Visualization orbit readout
Latitude
Unknown
Longitude
Unknown
Altitude
Unknown
Speed
Unknown
Apparent Right ascension
Unknown
Apparent Declination
Unknown
Sunlit
N/A
Visualization observer readout
Local Sidereal Time
13:09:03
Azimuth
Unknown
Elevation
Unknown
Doppler factor
Unknown
Orbital elements
Apogee altitude
191.197 km
Perigee altitude
175.727 km
Semi-major axis
6,561.599 km
Eccentricity
0.00118
Inclination
86.5212°
RAAN
35.6777°
Arg. of periapsis
354.9804°
True anomaly
5.15001°
Mean anomaly
5.1379°
Eccentric anomaly
5.14396°
Mean motion
4.08346 °/min
Orbital period
88.16 mins
BSTAR
0.0011426
Loading maneuver chart data...
Computing Atmospheric mass density...
Loading historical data...
Loading historical data...
Loading historical data...
Loading historical data...
Loading historical data...
Loading historical data...
Loading historical data...
Other satellites on launch #190 in the year 2023 (2023-12-05 UTC)

Documentation

Showing up to 5 results
|